User: anonymous   Login
Location: Byszew
(52.1813°N, 19.2693°E)
Time: 00:21:28
(UTC+00:00)
Language:

Cosmos 2360 Rocket - Orbit

View from above orbital plane
View from above orbital plane
View from above satellite
View from above satellite

Ground track
Ground track

The orbit data is extracted from the following two-line orbital elements,

1 25407U 98045B   21335.41168050 -.00000106  00000-0 -29587-4 0  9997
2 25407  71.0115 219.5943 0009724 249.4859 110.5220 14.15848151206378
Epoch (UTC): 01 December 2021 09:52:49
Eccentricity: 0.0009724
inclination: 71.0115°
perigee height: 832 km
apogee height: 846 km
right ascension of ascending node: 219.5943°
argument of perigee: 249.4859°
revolutions per day: 14.15848151
mean anomaly at epoch: 110.5220°
orbit number at epoch: 20637

The dashed part of the orbit path shows where the satellite is in the earth's shadow,  

DLR